Change the Weather History Date:

Sunday, October 14, 2012

  Actual Average (LGKO) Record (LGKO)
Temperature  
Mean Temperature 68 °F -  
Max Temperature 82 °F 73 °F 78 °F (1997)
Min Temperature 55 °F 62 °F 60 °F (2013)
Cooling Degree Days 4    
Growing Degree Days 18 (Base 50)    
Moisture  
Dew Point 55 °F    
Average Humidity 68    
Maximum Humidity 94    
Minimum Humidity 30    
Precipitation  
Precipitation 0.00 in - - ()
Sea Level Pressure  
Sea Level Pressure 30.00 in    
Wind  
Wind Speed 5 mph ()    
Max Wind Speed 15 mph    
Max Gust Speed -    
Visibility 6.2 miles    
Events      
Averages and records for this station are not official NWS values.
T = Trace of Precipitation, MM = Missing Value Source: Averaged Metar Reports

Daily Weather History Graph

Daily Weather History Graph

Search for Another Location

Airport or City:

Trip Planner

Search our weather history database for the weather conditions in past years. The results will help you decide how hot, cold, wet, or windy it might be!

Date:

Astronomy

Oct. 14, 2012 Rise Set
Actual Time 7:16 AM EEST 6:33 PM EEST
Civil Twilight 6:50 AM EEST 6:59 PM EEST
Nautical Twilight 6:19 AM EEST 7:29 PM EEST
Astronomical Twilight 5:49 AM EEST 7:59 PM EEST
Moon 5:53 AM EEST (10/14) 5:41 PM EEST (10/14)
Length of Visible Light 12h 09m
Length of Day
11h 17m
Waning Crescent, 2% of the Moon is Illuminated
Oct 14
Waning Crescent
Oct 15
New
Oct 22
First Quarter
Oct 29
Full
Nov 7
Last Quarter

Hourly Weather History & Observations

Time (EEST) Temp. Heat Index Dew Point Humidity Pressure Visibility Wind Dir Wind Speed Gust Speed Precip Events Conditions
12:20 AM 60.8 °F - 55.4 °F 82% 30.04 in - SE 3.5 mph - N/A   Clear
12:50 AM 60.8 °F - 55.4 °F 82% 30.01 in - ESE 3.5 mph - N/A   Clear
1:20 AM 59.0 °F - 53.6 °F 82% 30.01 in - ESE 3.5 mph - N/A   Clear
1:50 AM 59.0 °F - 53.6 °F 82% 30.01 in - Variable 2.3 mph - N/A   Clear
2:20 AM 59.0 °F - 53.6 °F 82% 30.01 in - SE 3.5 mph - N/A   Clear
2:50 AM 57.2 °F - 53.6 °F 88% 30.01 in - SE 3.5 mph - N/A   Clear
3:20 AM 57.2 °F - 53.6 °F 88% 30.01 in - ESE 4.6 mph - N/A   Clear
3:50 AM 57.2 °F - 53.6 °F 88% 30.01 in - East 2.3 mph - N/A   Clear
4:20 AM 55.4 °F - 53.6 °F 94% 29.98 in - ESE 2.3 mph - N/A   Clear
4:50 AM 57.2 °F - 53.6 °F 88% 30.01 in - SE 3.5 mph - N/A   Clear
5:20 AM 55.4 °F - 51.8 °F 88% 30.01 in - East 4.6 mph - N/A   Clear
5:50 AM 55.4 °F - 51.8 °F 88% 30.01 in - SE 4.6 mph - N/A   Clear
6:20 AM 55.4 °F - 51.8 °F 88% 30.01 in - ESE 3.5 mph - N/A   Clear
6:50 AM 55.4 °F - 51.8 °F 88% 30.01 in - ESE 3.5 mph - N/A   Clear
7:20 AM 55.4 °F - 51.8 °F 88% 30.01 in - Variable 2.3 mph - N/A   Clear
7:50 AM 55.4 °F - 53.6 °F 94% 30.01 in - SE 3.5 mph - N/A   Clear
8:20 AM 59.0 °F - 53.6 °F 82% 30.01 in - ESE 3.5 mph - N/A   Clear
8:50 AM 60.8 °F - 55.4 °F 82% 30.01 in - ESE 4.6 mph - N/A   Clear
9:20 AM 64.4 °F - 57.2 °F 77% 30.04 in - Variable 2.3 mph - N/A   Clear
9:50 AM 68.0 °F - 57.2 °F 68% 30.04 in - East 3.5 mph - N/A   Clear
10:20 AM 69.8 °F - 57.2 °F 64% 30.01 in - East 5.8 mph - N/A   Clear
10:50 AM 73.4 °F - 55.4 °F 53% 30.01 in - Variable 3.5 mph - N/A   Clear
11:20 AM 77.0 °F - 53.6 °F 44% 30.01 in - Variable 2.3 mph - N/A   Clear
11:50 AM 80.6 °F - 51.8 °F 37% 30.01 in - SW 3.5 mph - N/A   Clear
12:20 PM 82.4 °F - 50.0 °F 32% 29.98 in - WSW 4.6 mph - N/A   Clear
12:50 PM 82.4 °F - 51.8 °F 35% 29.98 in - WNW 9.2 mph - N/A   Clear
1:20 PM 82.4 °F - 48.2 °F 30% 29.98 in - West 13.8 mph - N/A   Clear
1:50 PM 82.4 °F - 51.8 °F 35% 29.98 in 6.2 mi West 13.8 mph - N/A   Partly Cloudy
2:20 PM 82.4 °F 81.7 °F 55.4 °F 39% 29.98 in 6.2 mi West 11.5 mph - N/A   Partly Cloudy
2:50 PM 82.4 °F 82.0 °F 57.2 °F 42% 29.98 in 6.2 mi West 12.7 mph - N/A   Partly Cloudy
3:20 PM 82.4 °F 81.7 °F 55.4 °F 39% 29.98 in 6.2 mi West 11.5 mph - N/A   Partly Cloudy
3:50 PM 80.6 °F 80.5 °F 55.4 °F 42% 29.95 in 6.2 mi West 12.7 mph - N/A   Partly Cloudy
4:20 PM 80.6 °F 80.5 °F 55.4 °F 42% 29.95 in 6.2 mi West 15.0 mph - N/A   Partly Cloudy
4:50 PM 78.8 °F - 55.4 °F 44% 29.98 in 6.2 mi West 15.0 mph - N/A   Partly Cloudy
5:20 PM 78.8 °F - 55.4 °F 44% 29.98 in 6.2 mi West 12.7 mph - N/A   Partly Cloudy
5:50 PM 78.8 °F - 57.2 °F 47% 29.98 in 6.2 mi WSW 9.2 mph - N/A   Partly Cloudy
6:20 PM 77.0 °F - 59.0 °F 54% 29.98 in - WSW 8.1 mph - N/A   Clear
6:50 PM 75.2 °F - 60.8 °F 61% 29.98 in - WSW 8.1 mph - N/A   Clear
7:20 PM 73.4 °F - 59.0 °F 61% 29.98 in - WSW 8.1 mph - N/A   Clear
7:50 PM 71.6 °F - 59.0 °F 64% 29.98 in - Variable 2.3 mph - N/A   Clear
8:20 PM 68.0 °F - 60.8 °F 78% 29.98 in - SE 3.5 mph - N/A   Clear
8:50 PM 66.2 °F - 60.8 °F 83% 29.98 in - Variable 2.3 mph - N/A   Clear
9:20 PM 66.2 °F - 60.8 °F 83% 30.01 in - Variable 2.3 mph - N/A   Clear
9:50 PM 66.2 °F - 59.0 °F 78% 30.01 in - ESE 5.8 mph - N/A   Clear
10:20 PM 64.4 °F - 59.0 °F 83% 30.01 in - Variable 2.3 mph - N/A   Clear
10:50 PM 64.4 °F - 59.0 °F 83% 30.01 in - Variable 2.3 mph - N/A   Clear
11:20 PM 64.4 °F - 59.0 °F 83% 30.04 in - SE 3.5 mph - N/A   Clear
11:50 PM 64.4 °F - 59.0 °F 83% 30.04 in - SE 3.5 mph - N/A   Clear